Starlink 33910

operational
NORAD ID: 63916 Int'l Des: 2025-095 Owner: SPXS Country: US Constellation: starlink
LEOCIRCULAR

Starlink 33910について

説明を読み込み中...

リアルタイム位置

3D地球を読み込み中...

次回通過

高度履歴

Altitude vs Time

uPlot chart will show altitude changes over time

軌道要素

1 63916U 25095AC 26062.42330061 .00032071 00000-0 11691-2 0 9994
2 63916 42.9993 211.2360 0001076 248.7820 111.2917 15.27603536 46823
Epoch: Mar 3, 2026 • Age: 29 hours

現在のステータス

高度 482.3 km
速度 7.63 km/s
衛星直下点 13.33°N, 16.69°W
打ち上げ日 May 10, 2025
運用期間 0.8 years
タイプ internet

技術仕様

分類 Payload
質量 575.00 kg
乾燥質量 530.00 kg
総質量 575.00 kg
長さ 0.30 m
直径 4.10 m
スパン 29.00 m
形状 Box + pan
製造者 SPXS
バスタイプ Starlink V2MO
フェーズステータス In Orbit
所有者/国 SPXS/US

大規模コンステレーション

Loading constellations...